RH
85 87 79 84 95 94 102 107 99 97 102 101 102 103 102 100 100 100 100 100 100 100 102 105 104 99 100 102 100 101 102 102 101 101 100 101 100 100 102 102 104 104 103 101 99 97 94 92 88 86 83 81
94 92 84 86 98 100 98 103 104 101 99 98 103 106 103 101 100 101 100 100 98 98 101 101 100 99 100 101 101 101 102 102 101 100 100 100 101 101 101 101 102 102 103 103 102 102 102 101 99 97 95 93
104 102 92 88 95 101 98 101 101 98 96 93 98 102 101 102 102 102 101 100 99 100 101 100 101 100 100 100 100 101 102 103 101 100 100 101 101 101 102 103 102 101 102 101 101 101 101 102 102 102 100 98
107 109 101 94 95 101 100 101 100 99 100 94 94 99 99 100 100 101 102 101 100 100 99 100 100 99 99 100 99 100 101 103 104 101 100 100 101 101 102 103 103 103 103 102 102 102 101 101 102 103 102 101
104 109 107 100 99 101 101 102 101 99 102 100 95 100 101 96 97 99 98 99 100 99 99 99 99 98 99 100 100 100 100 103 103 101 99 101 106 105 103 105 108 108 106 104 103 102 103 105 105 105 104 104
102 106 108 103 103 102 102 105 103 98 99 103 98 98 101 96 98 101 98 99 100 100 100 100 100 100 101 100 100 100 100 101 102 101 97 96 103 107 107 109 111 110 108 108 105 104 105 104 105 108 107 106
101 102 106 105 103 100 101 104 104 101 98 102 101 96 99 100 99 101 101 100 100 100 101 100 100 103 103 101 100 100 100 101 101 101 95 92 94 99 102 103 104 104 105 106 106 107 106 104 106 108 109 108
102 99 103 105 104 101 100 102 103 101 96 98 102 97 98 102 101 100 101 101 100 100 100 101 100 102 103 101 101 101 100 101 100 99 98 96 96 97 100 101 102 102 99 99 100 101 102 105 109 108 108 107
101 100 99 102 106 103 100 100 102 101 95 93 99 99 97 99 100 100 100 100 100 100 100 100 100 101 101 101 101 100 100 101 100 100 100 100 101 101 101 102 103 103 99 93 91 92 92 94 97 99 101 101
97 101 99 100 105 105 102 100 100 101 99 94 96 98 98 98 99 100 101 101 100 100 101 100 100 100 100 100 100 100 100 100 100 100 101 101 102 102 101 101 99 102 101 89 79 78 78 78 78 81 86 91
92 98 100 101 102 102 103 102 101 101 100 98 97 97 99 99 96 96 95 98 103 100 99 100 100 100 100 99 102 103 101 101 101 101 101 98 99 100 100 99 92 89 87 78 71 67 66 67 69 73 76 79
93 94 97 100 101 100 103 104 103 101 100 101 101 98 100 100 98 98 91 90 99 102 103 104 101 100 100 100 102 103 99 94 94 99 100 96 97 100 100 99 94 88 82 76 71 66 63 63 66 71 73 72
100 95 93 98 101 100 101 102 102 102 101 100 101 100 101 101 102 103 99 93 95 101 105 104 103 102 101 101 100 101 99 89 88 97 99 96 99 100 99 100 100 100 97 92 86 81 78 76 74 72 71 67
105 102 95 95 100 101 100 100 101 103 102 98 99 101 99 100 101 101 103 101 98 102 104 102 105 105 103 103 101 100 102 97 96 100 99 99 100 99 100 101 100 101 101 100 99 98 96 95 93 85 78 72
103 106 102 96 96 98 100 101 100 100 101 99 99 101 100 99 100 100 101 102 101 101 101 102 105 104 101 103 102 100 101 102 101 101 101 101 100 100 101 103 100 99 100 101 102 103 103 102 99 94 87 80
102 103 105 103 98 95 97 100 102 100 100 101 100 101 102 101 101 101 100 101 101 100 100 102 102 101 101 102 101 101 100 102 103 101 100 100 103 103 101 103 101 97 98 101 102 101 101 100 97 93 89 83
106 106 107 106 104 100 96 96 101 101 100 100 100 100 101 101 103 103 101 100 99 100 100 101 101 102 104 102 100 103 101 100 103 102 101 101 104 103 100 102 101 99 99 100 102 96 91 91 89 88 86 84
105 107 109 109 108 105 100 97 98 100 100 100 100 100 100 100 101 104 104 101 98 99 100 100 101 102 104 102 100 104 103 101 101 101 101 101 101 101 101 102 100 100 100 100 101 98 96 95 92 92 93 92
100 105 106 108 110 108 105 101 99 99 100 101 100 100 99 99 100 101 103 103 102 101 101 101 102 102 103 103 99 99 100 100 101 102 103 102 101 102 100 100 101 100 100 101 101 100 102 102 100 102 101 100
83 96 102 107 109 109 108 104 102 101 101 101 101 100 99 99 99 99 101 103 103 103 103 104 103 102 102 102 100 97 95 94 97 100 101 101 101 103 101 101 101 100 101 101 102 101 101 102 103 103 101 102
64 77 90 101 105 106 107 107 105 103 102 101 102 101 100 100 100 100 100 100 101 102 103 104 103 102 102 102 101 100 96 94 95 96 96 97 97 99 102 103 101 102 103 101 102 103 102 103 104 102 101 104
59 61 69 82 94 101 105 106 105 105 105 103 101 102 104 104 101 100 100 100 100 100 100 102 101 102 104 103 103 103 98 95 96 95 95 96 96 96 99 104 105 104 105 102 101 102 102 103 103 103 104 105
64 61 58 61 72 86 98 103 103 104 107 105 101 100 103 106 104 101 102 100 100 100 99 101 100 101 102 101 103 105 102 101 100 98 97 97 96 92 91 95 98 98 98 99 99 100 100 101 102 104 104 103
60 65 64 59 57 62 76 90 97 100 103 104 105 103 102 103 102 103 103 101 100 101 101 101 100 101 101 100 101 102 102 103 103 103 101 101 100 97 93 91 89 87 87 87 88 88 89 89 90 92 93 94
44 52 61 65 63 59 58 64 77 87 95 100 103 104 104 103 101 101 103 101 101 101 101 102 101 101 101 100 101 101 101 101 101 102 101 101 102 102 101 100 98 95 92 90 88 86 84 82 81 82 85 87
35 37 44 52 61 66 65 60 59 65 75 87 95 99 101 100 99 102 103 102 102 102 102 103 104 104 103 101 101 101 101 101 102 102 101 101 101 101 102 102 103 102 100 100 99 98 96 93 93 94 95 96
37 36 35 38 43 51 60 66 67 63 61 66 76 86 95 98 100 101 102 101 101 101 102 102 103 104 102 100 101 102 101 101 101 101 101 100 101 102 101 100 101 101 100 101 102 101 101 100 101 101 100 101
47 42 38 36 37 38 43 50 59 66 68 68 67 69 75 84 92 98 100 98 96 95 94 95 99 103 103 101 101 102 104 104 103 103 102 101 101 101 100 100 101 101 101 102 102 101 102 101 102 102 101 103
58 54 49 43 39 39 39 40 42 48 56 66 71 71 69 69 72 79 88 93 95 97 94 91 95 98 99 101 102 103 105 105 105 107 107 103 102 102 101 102 102 102 102 102 102 102 102 100 102 104 101 101
62 60 58 55 49 45 43 43 43 42 42 47 55 63 70 72 69 68 71 76 83 91 93 95 98 97 96 96 96 98 102 102 103 107 108 106 104 103 101 101 101 101 101 101 100 100 99 97 97 98 94 93
69 65 62 59 58 55 51 48 47 47 45 44 43 46 51 60 67 70 72 72 71 73 77 84 89 92 97 96 93 95 97 98 100 102 104 105 104 102 103 104 102 101 103 102 100 100 100 98 97 97 96 95
Wind_Speed
56 57 56 52 48 45 42 43 47 50 51 49 48 48 49 48 48 49 49 50 50 51 55 56 55 54 56 60 63 67 70 73 76 78 79 81 83 85 86 88 89 90 91 91 91 91 91 91 90 90 90 89
58 58 57 53 51 48 45 45 50 54 55 53 51 49 51 52 53 54 55 54 54 53 54 57 56 56 57 60 62 65 68 71 72 74 74 76 78 80 82 83 85 87 88 88 89 89 89 89 89 89 90 89
60 61 58 55 53 50 48 49 53 55 56 55 53 51 51 53 55 57 58 57 57 56 55 56 58 59 60 61 63 66 68 70 71 72 72 73 74 76 78 80 81 83 84 85 86 87 87 87 87 88 88 89
63 63 61 57 55 54 52 54 56 55 57 57 54 54 55 56 57 58 60 60 59 60 59 58 59 61 62 63 64 65 67 69 71 73 72 72 73 74 76 77 79 80 81 82 83 84 85 86 86 86 87 87
64 65 63 59 57 57 57 58 58 56 58 60 57 58 60 60 59 59 60 62 62 62 62 62 62 63 63 64 66 67 68 69 72 74 74 73 73 74 75 76 76 77 78 79 81 82 83 83 84 85 85 86
66 67 66 62 59 60 60 61 63 60 59 62 62 63 64 64 63 62 62 64 64 65 66 66 66 67 68 68 68 69 70 72 74 76 77 76 75 75 75 76 76 76 76 77 78 79 80 81 82 83 83 84
68 70 70 65 61 61 63 65 65 64 62 64 65 66 68 69 67 65 65 66 67 68 68 69 69 70 71 72 72 72 72 72 74 76 77 76 76 76 76 77 77 78 78 78 78 78 79 79 80 80 81 82
69 71 73 70 65 62 65 68 69 68 66 66 67 68 71 73 71 69 69 69 69 70 70 71 73 73 73 74 74 75 74 74 74 75 75 75 76 76 76 77 78 79 80 80 79 79 79 79 80 80 80 81
71 73 74 75 72 68 66 68 71 71 70 69 69 70 72 74 75 73 72 72 72 72 72 73 74 76 77 76 75 75 75 75 75 76 76 75 76 77 78 78 79 79 81 82 82 82 81 81 81 80 80 81
72 76 76 77 79 76 72 71 71 72 73 73 72 72 73 75 77 78 76 75 75 75 75 75 75 76 79 80 79 79 78 77 77 78 78 78 77 79 80 81 81 81 82 83 83 84 84 84 83 83 82 82
70 76 79 80 82 81 78 77 76 74 74 75 75 74 74 76 78 80 81 81 80 79 79 78 78 78 79 80 81 83 83 82 80 80 81 81 81 82 83 84 85 86 86 86 86 86 86 86 85 85 84 83
68 74 80 83 83 83 83 81 80 81 78 77 78 78 76 77 80 82 84 85 86 85 85 84 83 82 82 81 82 84 87 87 85 84 84 84 84 84 85 85 86 87 87 87 86 85 85 85 85 85 85 84
68 71 79 84 85 85 86 85 82 83 84 83 81 82 81 80 81 83 86 88 90 91 91 90 89 88 87 86 85 85 87 89 88 87 86 86 85 84 84 84 84 84 85 84 83 82 82 83 84 85 86 86
71 71 75 82 87 88 87 88 87 84 86 87 86 85 85 85 85 85 86 89 92 94 95 95 94 93 92 91 90 89 88 89 90 88 87 88 87 86 86 85 84 84 83 83 82 82 82 83 84 85 86 86
74 74 74 78 85 90 90 90 91 88 85 87 89 89 89 88 88 89 90 91 93 96 98 99 98 98 97 97 97 95 93 92 93 92 92 92 91 91 90 89 89 89 88 88 87 87 87 88 88 88 88 88
76 76 77 77 80 86 91 93 93 92 89 87 88 91 92 92 91 92 94 95 95 96 98 100 101 101 101 101 101 100 99 97 96 96 96 96 96 95 95 94 94 95 95 95 95 94 94 93 93 93 93 92
78 78 79 80 79 82 87 92 95 96 94 92 90 91 94 95 95 95 96 97 98 98 100 101 102 104 104 104 104 104 103 102 101 100 99 99 99 99 98 98 98 98 98 99 99 99 98 98 97 97 97 97
81 81 82 82 82 82 82 86 93 98 99 98 96 94 94 95 97 98 98 98 99 100 101 102 103 104 106 106 107 106 106 105 105 104 103 102 102 102 101 101 100 100 100 100 100 101 101 101 101 101 101 100
83 84 85 85 84 84 84 84 88 95 100 102 102 100 99 97 97 99 100 101 100 100 101 102 103 105 107 108 108 109 109 108 108 108 107 106 105 105 105 104 104 103 102 101 101 102 102 102 102 102 102 102
84 85 87 87 87 87 88 88 87 90 96 101 104 105 105 103 102 101 102 103 103 103 102 103 104 105 106 108 108 109 109 110 110 110 110 110 110 110 110 109 109 108 107 106 105 104 104 104 104 103 103 103
84 86 88 90 90 91 91 91 90 90 92 95 101 105 108 109 109 107 105 105 105 105 105 106 106 106 107 107 108 109 109 109 110 111 111 112 112 112 113 113 112 112 111 110 110 109 108 107 106 105 105 104
85 86 88 90 91 92 93 93 92 93 94 94 96 100 105 110 113 113 111 109 108 107 107 108 108 108 109 110 110 110 110 109 110 111 112 113 113 114 114 114 114 114 114 114 113 112 111 111 110 109 108 107
86 87 89 90 92 93 94 95 96 96 97 97 96 97 100 106 111 114 115 114 113 111 110 110 110 111 112 112 113 113 112 111 111 112 112 112 113 113 114 114 115 116 116 116 116 115 115 114 113 112 112 111
86 88 90 91 92 93 95 97 99 100 99 99 99 99 101 103 106 109 113 116 117 116 115 114 114 114 115 115 115 116 116 116 115 115 114 114 113 113 113 114 114 115 116 116 116 116 116 116 115 114 114 113
84 87 90 92 93 93 95 97 99 101 102 102 102 103 104 104 104 105 108 112 116 118 119 119 119 119 119 119 118 119 119 119 119 118 118 117 117 116 115 115 115 115 115 116 116 116 116 116 116 116 115 115
81 84 87 90 93 95 96 97 98 100 101 103 105 106 106 106 106 106 107 109 111 114 117 120 122 124 124 123 122 122 121 121 121 121 121 121 121 120 120 119 119 118 118 118 118 119 119 118 118 118 118 118
81 83 85 87 89 93 96 97 99 100 101 102 105 107 108 109 109 109 110 111 111 112 114 116 119 123 125 125 125 124 124 123 123 123 123 123 123 123 123 122 122 122 122 122 122 122 122 122 122 121 121 121
80 83 85 86 87 89 92 94 98 100 102 103 105 107 109 111 112 113 113 114 115 114 114 113 114 117 119 121 123 124 125 126 126 127 126 126 126 126 125 125 125 126 126 126 126 125 125 125 125 124 123 123
80 81 84 86 87 88 90 91 94 97 100 103 106 108 110 112 113 114 115 116 117 116 116 115 115 116 116 117 118 120 122 124 126 128 129 129 129 128 128 128 128 128 129 128 128 128 128 128 127 127 127 128
80 81 83 85 86 88 90 91 93 95 98 100 104 108 111 113 114 114 114 115 117 118 118 118 118 119 119 118 118 118 119 120 122 125 127 129 130 130 131 131 130 130 130 130 130 130 130 130 130 130 131 131
80 82 83 84 86 87 89 90 92 95 97 98 101 104 108 111 113 114 115 116 117 118 119 120 121 121 122 122 121 121 120 120 120 122 124 125 126 128 129 130 130 130 131 132 131 131 131 131 131 131 131 131
Wind_Direction
242 242 243 240 235 234 233 230 225 221 218 219 219 217 215 217 223 228 230 231 232 234 234 233 233 236 239 241 241 241 241 241 242 242 243 245 245 246 247 248 248 249 249 250 250 250 250 251 251 251 252 252
240 241 241 238 233 230 231 231 227 224 220 216 215 216 218 218 222 226 228 229 230 232 235 235 233 234 236 239 241 242 242 241 241 242 243 244 245 245 246 247 248 248 249 249 250 250 250 251 251 251 252 252
238 238 240 238 233 228 228 233 231 228 225 220 216 216 219 222 224 226 226 226 226 228 230 232 232 232 234 237 239 242 244 244 243 243 243 244 245 246 246 247 248 248 249 249 249 250 250 251 251 251 251 252
236 237 238 237 233 227 226 232 234 231 227 224 221 218 220 224 226 228 228 227 227 227 228 230 231 231 234 236 239 242 245 246 246 245 243 244 245 246 247 247 248 249 249 249 250 250 250 250 251 251 251 252
236 236 236 234 232 229 226 229 232 232 229 226 224 222 222 224 225 228 229 230 231 231 230 232 233 233 234 236 238 241 244 246 247 247 245 244 246 247 248 248 248 249 250 250 250 250 250 251 251 251 252 252
235 235 236 233 231 230 229 230 230 229 230 229 227 224 222 224 226 228 229 230 232 233 234 234 236 236 236 236 238 240 243 245 247 248 246 245 245 246 248 248 249 249 249 249 250 250 250 250 251 251 251 252
235 234 234 232 229 230 231 232 232 229 229 230 230 227 224 224 227 229 229 229 231 232 234 235 235 237 237 237 238 240 242 244 247 249 249 248 247 248 249 249 249 249 249 249 249 249 249 250 250 251 251 252
234 234 233 232 228 229 231 233 234 231 229 229 231 230 227 225 227 230 231 231 230 231 233 234 235 235 236 237 238 239 241 243 245 247 248 249 249 249 249 249 249 250 249 249 249 249 249 249 249 250 251 252
232 233 233 231 229 227 229 232 234 233 230 228 230 231 230 228 227 229 232 234 233 233 234 235 236 236 236 236 237 238 239 240 241 243 244 245 246 247 248 248 248 249 250 250 250 250 250 250 250 251 251 252
229 232 232 231 231 229 227 229 232 233 232 230 229 231 231 230 229 229 231 234 236 236 236 237 237 238 237 237 237 237 238 239 240 241 242 243 244 246 247 248 248 249 250 251 251 251 251 252 252 251 252 252
229 230 232 232 231 231 230 229 230 231 232 231 230 230 231 231 231 231 231 232 234 235 237 238 239 239 240 240 239 239 239 240 241 242 243 244 246 248 250 251 251 251 251 252 252 252 252 252 252 252 252 251
233 230 230 231 231 231 231 231 231 231 230 230 230 230 231 232 232 232 232 232 233 234 235 237 239 240 241 241 241 241 241 241 243 244 245 246 248 249 250 251 252 253 253 254 254 253 253 253 253 253 252 252
237 234 231 230 231 231 232 232 232 233 232 230 230 229 230 231 232 233 233 233 233 234 234 236 237 239 241 241 241 242 242 242 243 244 244 245 246 247 247 248 249 250 251 252 253 253 253 253 253 253 253 253
239 238 235 232 231 231 231 232 232 233 234 233 231 230 230 230 231 233 234 234 234 234 234 235 236 237 238 240 241 242 242 242 243 243 243 243 244 245 245 245 246 247 248 250 250 251 252 252 253 253 253 254
240 239 239 236 233 232 231 232 233 233 234 235 234 233 231 231 232 233 233 234 235 235 235 235 236 236 237 238 240 241 241 242 242 243 243 244 244 244 245 245 246 247 248 249 250 251 252 252 253 254 254 255
243 241 240 239 237 235 233 232 233 234 234 234 236 236 234 233 233 233 234 234 235 236 236 237 237 237 238 238 239 240 240 242 243 243 244 245 245 246 246 247 247 247 248 249 250 251 252 253 254 255 255 256
244 243 241 241 240 239 236 234 234 234 235 235 235 237 237 236 235 235 235 236 236 236 237 238 239 239 239 239 239 240 240 241 242 243 244 245 246 247 248 249 249 249 249 250 250 251 252 253 254 255 255 256
242 242 242 241 241 240 240 238 236 235 235 235 235 236 238 238 238 238 237 237 238 238 238 238 239 240 241 241 241 241 241 241 242 242 243 244 245 246 247 248 249 250 250 250 250 251 251 252 253 254 254 255
240 240 241 241 241 240 240 240 239 237 236 236 236 236 237 238 239 239 239 239 239 239 239 240 240 241 241 242 242 242 242 242 243 243 244 244 244 245 246 247 248 249 250 250 251 251 251 252 253 253 254 254
241 240 240 241 240 240 239 239 239 239 238 237 237 237 237 238 239 239 240 240 240 240 241 241 242 242 242 243 243 243 244 244 244 244 245 245 246 246 247 247 248 249 250 250 251 252 252 253 253 254 254 255
242 241 241 240 240 240 240 239 238 239 239 239 238 238 238 238 239 239 239 240 240 241 241 242 243 244 244 244 245 245 245 245 245 245 245 246 247 247 247 248 248 249 250 250 251 252 252 253 253 254 254 255
243 242 242 241 241 241 241 241 240 239 240 239 239 239 239 239 240 240 240 241 241 241 241 242 243 244 245 245 246 246 246 246 246 246 246 247 247 248 248 248 249 250 250 251 251 252 252 253 253 254 254 254
244 244 243 242 241 241 241 241 241 240 240 240 239 239 240 240 240 240 241 242 242 241 241 241 242 243 244 245 245 246 246 246 246 246 247 247 247 248 249 249 250 250 251 251 252 252 253 253 254 254 255 255
245 245 245 244 243 242 241 241 241 241 241 241 240 240 240 240 241 241 241 242 242 242 242 242 242 243 243 244 245 245 246 246 246 247 247 248 248 248 249 250 250 251 251 252 253 253 253 254 254 255 255 256
246 245 245 246 245 244 243 242 242 242 241 242 242 241 240 240 240 241 242 242 242 242 243 243 243 243 243 244 244 245 245 246 247 247 248 248 249 249 249 249 250 251 251 252 253 254 254 255 255 256 256 257
248 247 246 245 245 245 245 245 244 244 243 243 243 243 242 242 241 241 241 242 242 242 242 243 243 244 244 244 245 246 246 247 247 247 248 248 249 249 249 250 250 250 251 252 252 253 254 255 255 256 256 257
249 248 247 246 246 246 245 245 246 246 245 245 245 244 244 244 244 243 242 242 242 242 242 242 243 244 245 245 246 247 248 248 249 249 249 249 249 249 250 250 251 251 252 252 252 253 254 254 255 255 256 256
251 250 249 248 247 246 246 246 245 245 246 246 246 246 246 245 245 244 244 244 244 243 243 243 244 245 245 246 247 247 248 249 250 250 250 250 251 251 251 252 252 252 253 253 254 254 254 254 255 255 256 256
252 251 250 250 248 247 247 246 246 246 245 245 246 246 246 246 246 245 245 246 246 246 246 245 245 245 245 246 246 247 247 248 249 250 250 250 251 251 252 252 252 253 254 254 254 255 255 255 256 256 257 257
255 254 252 251 250 248 248 247 247 246 246 245 245 246 246 247 247 247 247 247 247 247 247 247 247 247 247 246 246 246 247 247 248 249 249 250 250 250 251 251 252 253 253 254 254 255 255 256 256 257 257 258
256 255 254 253 252 250 249 248 247 247 247 246 246 246 246 246 247 247 248 248 248 248 248 248 248 248 248 248 248 248 248 248 248 249 249 250 250 250 251 251 251 252 253 253 254 254 255 255 256 257 257 258